Location: Vancouver
(49.2827°N, 123.1207°W)
Time: 00:27:59
(UTC-07:00)

ISS - Pass Details

Date: 29 June 2024
Orbit: 410 x 424 km, 51.6° (Epoch: 13 July)

Event Time Altitude Azimuth Distance (km) Brightness Sun altitude
Exits shadow 02:32:18 25° 147° (SSE) 887 -2.5 -15.6°
Maximum altitude 02:32:26 25° 143° (SE) 886 -2.4 -15.6°
Drops below altitude 10° 02:35:13 10° 86° (E) 1,490 -0.7 -15.4°
Sets 02:37:33 0° 73° (ENE) 2,360 0.6 -15.3°
